User: anonymous   Login
Location: ????????
(54.9045°N, 39.1041°E)
Time: 20:14:20
(UTC+00:00)
Language:

MSX - Orbit

View from above orbital plane
View from above orbital plane
View from above satellite
View from above satellite

Ground track
Ground track

The orbit data is extracted from the following two-line orbital elements,

1 23851U 96024A   24171.82991101  .00000323  00000-0  25688-3 0  9996
2 23851  98.9706 111.1578 0008927  81.9428 278.2748 13.98242103436691
Epoch (UTC): 19 June 2024 19:55:04
Eccentricity: 0.0008927
inclination: 98.9706°
perigee height: 893 km
apogee height: 906 km
right ascension of ascending node: 111.1578°
argument of perigee: 81.9428°
revolutions per day: 13.98242103
mean anomaly at epoch: 278.2748°
orbit number at epoch: 43669

The dashed part of the orbit path shows where the satellite is in the earth's shadow,  

DLR